[Date Prev][Date Next][Thread Prev][Thread Next] - [Date Index][Thread Index][Author Index]
2 Line ISS Keps 12-5
- Subject: [sarex] 2 Line ISS Keps 12-5
- From: "Dave Larsen PhD" <doc@xxxxxxxxxxx>
- Date: Sun, 5 Dec 2004 02:52:29 -0800
ISS
1 25544U 98067A 04340.38830193 .00015346 00000-0 12424-3 0 2938
2 25544 51.6373 171.9612 0004337 79.8759 336.0802 15.71009583345212
----
Via the sarex mailing list at AMSAT.ORG courtesy of AMSAT-NA.
To unsubscribe, send "unsubscribe sarex" to Majordomo@amsat.org
AMSAT Home